Location: ČR
(50.0000°N, 15.0000°E)
Time: 16:02:32
(UTC+01:00)

Courier 1B - Pass Details

Date: 14 February 2026
Orbit: 962 x 1208 km, 28.3° (Epoch: 16 March)

Event Time Altitude Azimuth Distance (km) Brightness Sun altitude
Rises 23:30:24 0° 236° (SW) 4,083 - -51.7°
Reaches altitude 10° 23:35:04 10° 211° (SSW) 3,136 - -51.9°
Maximum altitude 23:38:27 13° 185° (S) 2,890 - -52.1°
Drops below altitude 10° 23:41:49 10° 159° (SSE) 3,134 - -52.2°
Sets 23:46:30 0° 135° (SE) 4,077 - -52.3°
